Regional Weather Roundup
Issued by NWS Columbia, SC

Home | Current Version | Previous Version | Text Only | Print | Product List | Glossary On
Versions: 1 2 3 4 5 6 7 8 9 10 11 12 13 14 15 16 17 18 19 20 21 22 23 24 25 26 27 28 29 30 31 32 33 34 35 36 37 38 39 40 41 42 43 44 45 46 47 48 49 50
000
ASUS42 KCAE 280410
RWRCAE
REGIONAL WEATHER ROUNDUP
NATIONAL WEATHER SERVICE COLUMBIA SC
1200 AM EDT THU MAY 28 2015

NOTE: "FAIR" INDICATES FEW OR NO CLOUDS BELOW 12,000 FEET WITH NO
SIGNIFICANT WEATHER AND/OR OBSTRUCTIONS TO VISIBILITY.

NOT ALL STATIONS ARE QUALITY CONTROLLED BY THE NATIONAL
WEATHER SERVICE. USE DATA WITH CAUTION...ESPECIALLY
DEWPOINT OBSERVATIONS.

SCZ001>056-GAZ040-063>065-077-280500-
...UPSTATE SOUTH CAROLINA...

CITY           SKY/WX    TMP DP  RH WIND       PRES   REMARKS
ANDERSON       PTCLDY    67  65  93 CALM      30.23S
LIBERTY        PTCLDY   N/A N/A N/A CALM      30.23S
SPARTANBURG    CLEAR     70  70 100 CALM      30.22F
CLEMSON        PTCLDY    70  65  84 NW3       30.24S
GREENVILLE     PTCLDY    71  63  75 CALM      30.24F
GREENWOOD      MOCLDY    73  68  84 S5        30.24S
GREER          PTCLDY    68  65  90 CALM      30.22F
ROCK HILL      PTCLDY    72  69  90 S6        30.23F
CHESTER        MOCLDY    73  70  88 S5        30.24S
LAURENS        CLOUDY    70  70 100 CALM      30.22F


...CENTRAL SOUTH CAROLINA...

CITY           SKY/WX    TMP DP  RH WIND       PRES   REMARKS
COLUMBIA APT   PTCLDY    73  67  81 E5        30.22S
COLUMBIA OWENS PTCLDY    71  68  90 CALM      30.24R
DARLINGTON     PTCLDY    72  66  83 CALM      30.24S
FLORENCE       MOCLDY    71  69  93 S3        30.23R
ORANGEBURG     CLEAR     69  66  90 CALM      30.22S
NEWBERRY       CLOUDY    72  70  94 S3        30.25F
AIKEN          FAIR      70  64  83 SW3       30.26S
BARNWELL       FAIR      73  68  83 CALM      30.23R
MANNING        FAIR      68  66  94 CALM      30.23R
CAMDEN         FAIR      72  70  94 CALM      30.24S
LANCASTER      LGT RAIN  70  70 100 SE3       30.24R
WINNSBORO      CLEAR     70  68  94 S6        30.23S


...EASTERN AND COASTAL SOUTH CAROLINA...

CITY           SKY/WX    TMP DP  RH WIND       PRES   REMARKS
MYRTLE BEACH   PTCLDY    75  66  73 SE10      30.24F
N MYRTLE BCH   PTCLDY    75  67  76 S7        30.22F
CONWAY         FAIR      68  68 100 CALM      30.23S
MARION         FAIR      70  70 100 CALM      30.23S
HARTSVILLE     CLOUDY    70  68  94 CALM      30.23R
FLORENCE       MOCLDY    71  69  93 S3        30.23R
DARLINGTON     PTCLDY    72  66  83 CALM      30.24S
CHARLESTON APT PTCLDY    73  67  81 SE3       30.22R
MOUNT PLEASANT LGT RAIN  70  68  94 CALM      30.22S
WALTERBORO     CLEAR     66  63  88 CALM      30.23S
BEAUFORT       CLEAR     72  68  87 CALM      30.21S


...EASTERN GEORGIA...

CITY           SKY/WX    TMP DP  RH WIND       PRES   REMARKS
AUGUSTA BUSH F CLOUDY    73  68  84 S3        30.21R
AUGUSTA DANIEL CLOUDY    78  67  68 S7        30.23R
THOMSON        MOCLDY    73  73 100 CALM      30.26S
WASHINGTON     MOCLDY    77  75  94 CALM      30.22F
CLAXTON        FAIR      68  64  88 CALM      30.21S
SYLVANIA       PTCLDY    69  68  96 CALM      30.22S
STATESBORO     PTCLDY    69  69 100 CALM      30.22S
SAVANNAH       PTCLDY    72  65  78 CALM      30.21S


...SOUTHERN NORTH CAROLINA...

CITY           SKY/WX    TMP DP  RH WIND       PRES   REMARKS
CHARLOTTE      PTCLDY    72  66  81 S8        30.23S
MONROE         CLEAR     70  67  90 CALM      30.23R
WADESBORO      CLOUDY    73  68  85 S3        30.23R
ROCKINGHAM     PTCLDY    70  68  94 CALM      30.24R
RUTHERFORDTON  CLEAR     66  66  98 CALM      30.24F
ASHEVILLE      MOCLDY    67  63  87 CALM      30.28S

$$


USA.gov is the U.S. government's official web portal to all federal, state and local government web resources and services.